• MPC Preparation (Info)

  • MPEC 2015-N34 : 2015 NK3

    The following Minor Planet Electronic Circular may be linked-to from your own Web pages, but must not otherwise be redistributed electronically.

    A form allowing access to any MPEC is at the bottom of this page.


    Read MPEC 2015-N33 Read MPEC 2015-N35


    M.P.E.C. 2015-N34                                Issued 2015 July 12, 14:06 UT
    
         The Minor Planet Electronic Circulars contain information on unusual
             minor planets and routine data on comets.  They are published
       on behalf of Commission 20 of the International Astronomical Union by the
              Minor Planet Center, Smithsonian Astrophysical Observatory,
                              Cambridge, MA 02138, U.S.A.
    
                 Prepared using the Tamkin Foundation Computer Network
    
                                  MPC@CFA.HARVARD.EDU
                URL https://www.minorplanetcenter.net/    ISSN 1523-6714
    
                                       2015 NK3
    
    Observations:
         K15N03K* C2015 07 08.57760 21 05 25.397+13 58 10.69         21.4 iLEN034F51
         K15N03K  C2015 07 08.58570 21 05 24.795+13 58 02.54         21.3 iLEN034F51
         K15N03K  C2015 07 08.59393 21 05 24.204+13 57 54.44         21.3 iLEN034F51
         K15N03K  C2015 07 09.36811 21 04 31.19 +13 44 37.9          22.2 RoEN034926
         K15N03K  C2015 07 09.38757 21 04 29.63 +13 44 18.5          22.0 RoEN034926
         K15N03K KC2015 07 09.42829 21 04 26.53 +13 43 35.3          21.1 RoEN034291
         K15N03K KC2015 07 09.43406 21 04 26.17 +13 43 29.8                oEN034291
         K15N03K  C2015 07 09.59028 21 04 14.67 +13 40 45.1          22.6 RtEN034F51
         K15N03K  C2015 07 09.59718 21 04 14.13 +13 40 37.6          22.6 RtEN034F51
         K15N03K KC2015 07 11.29915221 02 05.50 +13 08 07.2          22.0 VuEN034H21
         K15N03K KC2015 07 11.31808621 02 03.86 +13 07 44.3          21.8 VuEN034H21
         K15N03K KC2015 07 11.32476421 02 03.29 +13 07 36.4          22.1 VuEN034H21
         K15N03K KC2015 07 11.32739521 02 03.06 +13 07 33.2          21.7 VuEN034H21
         K15N03K KC2015 07 12.43476 21 00 31.24 +12 44 13.6          21.1 RoEN034291
         K15N03K KC2015 07 12.44308 21 00 30.48 +12 44 02.7          21.2 RoEN034291
         K15N03K KC2015 07 12.45142 21 00 29.73 +12 43 51.8                oEN034291
    
    Observer details:
    291 LPL/Spacewatch II.  Observers T. H. Bressi, J. V. Scotti.  1.8-m f/2.7
        reflector + CCD.
    926 Tenagra II Observatory.  Observers M. Schwartz, P. R. Holvorcem.  Measurer
        M. Schwartz.  0.81-m f/7 Ritchey-Chretien + CCD.
    F51 Pan-STARRS 1, Haleakala.  Observers B. Gibson, T. Goggia, N. Primak,
        A. Schultz, M. Willman.  Measurers K. Chambers, S. Chastel, L. Denneau,
        H. Flewelling, M. Huber, E. Lilly, E. Magnier, R. Wainscoat, C. Waters,
        R. Weryk, P. Veres.  1.8-m Ritchey-Chretien + CCD.
    H21 Astronomical Research Observatory, Westfield.  Observer R. Holmes.
        Measurers S. Foglia, L. Buzzi, T. Linder, R. Holmes.  0.81-m f/4.0
        astrograph + CCD.
    
    Orbital elements:
    2015 NK3                                                 Earth MOID = 0.1888 AU
    Epoch 2015 June 27.0 TT = JDT 2457200.5                 MPC
    M 220.83129              (2000.0)            P               Q
    n   0.83494147     Peri.  312.07171     -0.04003274     -0.93998252
    a   1.1169456      Node   136.43389     +0.99858066     -0.04956011
    e   0.3616031      Incl.   29.45151     +0.03512894     +0.33760430
    P   1.18           H   21.5           G   0.15           U   9
    Residuals in seconds of arc
    150708 F51  0.0   0.1-    150709 291  1.0+  1.1+    150711 H21  0.3-  0.1-
    150708 F51  0.1-  0.2-    150709 F51  0.1-  0.0     150712 291  0.0   0.1-
    150708 F51  0.1+  0.0     150709 F51  0.1-  0.0     150712 291  0.0   0.0
    150709 926  0.0   0.8-    150711 H21  0.0   0.4-    150712 291  0.2+  0.2+
    150709 926  0.8-  0.3+    150711 H21  0.2-  0.3-
    150709 291  0.3-  0.4+    150711 H21  0.2-  0.1-
    
    Ephemeris:
    2015 NK3                 a,e,i = 1.12, 0.36, 29                  q = 0.7131
    Date    TT    R. A. (2000) Decl.     Delta      r     Elong.  Phase     V
    2015 06 12    21 14 03.8 +16 09 08   0.7982  1.4942   110.4    39.6    23.5
    ...
    2015 06 27    21 13 55.2 +15 58 06   0.6439  1.4655   122.3    35.9    22.8
    ...
    2015 07 05    21 08 59.5 +14 49 44   0.5651  1.4458   129.9    32.6    22.4
    ...
    2015 07 11    21 02 29.1 +13 14 16   0.5092  1.4292   136.4    29.4    22.1
    2015 07 12    21 01 08.3 +12 53 44   0.5002  1.4262   137.5    28.8    22.0
    2015 07 13    20 59 42.7 +12 31 43   0.4914  1.4232   138.7    28.1    22.0
    ...
    2015 07 19    20 49 25.4 +09 44 50   0.4413  1.4043   146.1    23.8    21.6
    ...
    2015 07 27    20 30 57.0 +04 12 35   0.3846  1.3765   156.3    17.2    21.0
    ...
    2015 08 11    19 43 23.7 -12 12 21   0.3241  1.3165   156.1    18.2    20.6
    
    A. U. Tomatic                (C) Copyright 2015 MPC           M.P.E.C. 2015-N34
    

    Read MPEC 2015-N33 Read MPEC 2015-N35


    MPEC number:

    Enter an MPEC number in one of the following forms:

    • 1997-B01 (the full form)
    • J97B01 (the packed version of the full form)
    • B01 (the abbreviated form)